Location: Observatorio Las Palmas
(29.0667°N, 110.9333°W)
Time: 06:56:07
(UTC-07:00)

Daily predictions for brighter satellites

Satellite Brightness Start Highest point End
(mag) Time Altitude Azimuth Time Altitude Azimuth Time Altitude Azimuth
Cosmos 1867 3.6 18:54:10 10° SSW 18:59:34 74° ESE 19:05:02 10° NNE
Cosmos 1805 3.9 18:56:06 10° SSE 18:59:38 34° E 19:03:11 10° NNE
FENGYUN 3A 4.2 18:58:06 10° SE 19:03:00 37° ENE 19:07:54 10° N
Cosmos 1812 Rocket 4.1 18:59:20 10° SSW 19:03:42 65° W 19:08:04 10° N
Cosmos 1934 Rocket 4.0 18:58:05 10° S 19:04:14 86° E 19:10:20 10° N
Okean 3 Rocket 4.4 19:00:52 10° NNE 19:04:42 29° E 19:08:33 10° SE
ALOS 2.8 19:01:46 10° SE 19:06:04 38° ENE 19:10:22 10° N
Tiangong 1 1.1 19:06:06 10° NW 19:09:00 55° NNE 19:11:51 10° ESE
PSLV R/B 4.0 19:09:45 10° SSW 19:12:35 31° SE 19:15:22 10° ENE
Cosmos 1833 Rocket 4.1 19:09:06 10° NNE 19:12:55 18° ENE 19:16:33 11° ESE
RESURS DK-1 2.3 19:10:30 10° NNW 19:14:38 82° ENE 19:18:45 10° SSE
Delta 2 Rocket 3.6 19:10:44 10° WNW 19:15:51 88° NNE 19:20:00 12° ESE
NOAA 12 4.2 19:10:38 10° SSE 19:15:57 85° WSW 19:21:16 10° NNW
Cosmos 2278 Rocket 3.7 19:11:21 10° SW 19:16:41 42° WNW 19:22:03 10° N
GPS 2-05 Rocket1 4.3 19:14:03 10° WNW 19:17:16 32° N 19:20:33 10° NE
Cosmos 1470 4.1 19:14:55 10° SE 19:17:51 20° E 19:20:47 10° NE
ATLAS 5 CENTAUR R/B 1.6 19:14:27 10° SSW 19:19:00 76° ESE 19:23:50 10° NNE
Cosmos 1125 Rocket 3.4 19:14:05 10° SSW 19:19:15 82° ESE 19:24:28 10° NNE
SeaSat 1 3.3 19:15:58 10° ESE 19:20:16 32° ENE 19:24:36 10° N
Cosmos-2242 3.9 19:18:28 10° SE 19:21:57 25° E 19:25:27 10° NE
HJ-1C 3.6 19:21:52 10° SSE 19:25:08 50° ENE 19:28:27 10° N
OAO 2 Rocket 3.5 19:20:38 10° SW 19:25:41 61° SSE 19:30:17 13° ENE
GP-B 4.2 19:22:43 10° SE 19:26:15 24° E 19:29:48 10° NNE
Geosat 4.2 19:24:17 10° NE 19:29:05 45° ESE 19:33:51 10° S
SJ-6B 2.7 19:26:14 10° S 19:29:56 81° WSW 19:33:41 10° NNW
CZ-3 Stage 3 4.5 18:12:22 10° WSW 19:30:11 85° N 19:37:50 15° E
H-2A R/B 3.1 19:27:53 10° SSE 19:31:35 43° ENE 19:35:18 10° N
Yuri Rocket 3.3 19:29:41 10° W 19:34:10 55° SSW 19:36:57 19° ESE
Cosmos 2297 4.1 19:29:20 10° SSW 19:34:59 71° WNW 19:40:43 10° NNE
Resurs 01 Rocket 1.8 19:31:47 10° SSE 19:36:02 49° ENE 19:40:18 10° N
SL-27 R/B 4.1 19:34:26 10° NNW 19:37:49 38° WSW 19:41:11 10° S
ISS -1.4 19:37:56 10° W 19:40:33 22° NW 19:43:11 10° NNE
FengYun 1-2 T 4.3 19:42:34 10° SSE 19:48:08 86° WSW 19:53:46 10° NNW
SAR-Lupe-4 4.5 19:50:51 29° ENE 19:50:51 29° ENE 19:53:50 10° NNE
Meteor 1-29 3.7 19:47:51 10° NNE 19:50:31 32° ENE 19:50:31 32° ENE
Cosmos 2082 Rocket 2.4 19:48:07 10° N 19:53:36 49° ENE 19:56:37 25° SE
Cosmos 2100 Rocket 4.0 19:49:48 10° S 19:56:00 62° E 20:02:15 10° NNE
H-II Stage 2 0.6 19:54:13 10° W 19:56:14 87° S 19:56:26 71° E
Cosmos 1271 Rocket 2.6 19:52:48 10° S 19:56:47 76° E 20:00:48 10° N
COSMOS 2487 2.5 19:56:55 10° N 20:00:25 55° ENE 20:00:44 52° E
Cosmos 1953 4.0 20:01:15 10° SSW 20:05:01 36° W 20:08:47 10° NNW
MINOTAUR R/B 4.5 20:03:15 10° SSW 20:06:06 73° WNW 20:06:12 72° NW
Delta 128 3.5 20:02:17 10° W 20:06:51 75° S 20:07:58 49° ESE
Cosmos 1674 2.5 20:06:43 10° N 20:10:31 79° E 20:11:14 56° SSE
Resurs 1-3 3.8 20:06:59 11° S 20:11:15 70° WSW 20:15:37 10° NNW
BREEZE-M DEB (TANK) 4.1 20:09:07 10° W 20:12:01 35° NNW 20:19:34 10° NE
Cosmos 1818 3.6 20:07:20 10° NNW 20:12:46 79° WSW 20:15:45 27° SSE
Cosmos 1269 Rocket 3.9 20:07:36 10° NNW 20:12:54 87° ENE 20:15:54 27° SSE
Aurora 2 Rocket 3.5 20:06:12 10° W 20:13:50 61° S 20:15:38 42° ESE
Cosmos 158 Rocket 3.9 20:11:45 10° NNW 20:16:57 78° ENE 20:18:58 39° SSE
Cosmos 1408 Rocket 3.6 20:13:18 10° N 20:17:46 83° W 20:19:56 30° S
Cosmos 1802 Rocket 3.8 20:13:48 10° S 20:19:53 78° E 20:26:03 10° N
Delta 7925 Rocket 4.1 20:14:54 10° SW 20:20:01 37° SSE 20:20:02 37° SSE
Helios 1B rocket 3.0 20:19:32 10° N 20:23:34 56° WNW 20:27:35 10° SSW
Cosmos 1842 Rocket 4.4 20:27:31 38° NNE 20:27:31 38° NNE 20:30:20 10° NNE
USA 215 3.1 20:19:32 10° NE 20:26:05 86° SE 20:32:37 10° SW
Mugunghwa Rocket 4.1 20:20:54 10° WSW 20:26:59 52° SSE 20:27:52 48° SE
Lacrosse 5 rocket 3.2 20:28:20 10° NNW 20:29:53 19° N 20:29:53 19° N
Cosmos 2061 Rocket 4.3 20:30:59 10° SSW 20:37:17 68° W 20:43:42 10° N
Helios 1A 3.4 20:39:35 58° W 20:39:35 58° W 20:43:41 10° NNW
Delta 168 4.4 20:36:10 10° W 20:38:12 25° WSW 20:38:12 25° WSW
Envisat 3.1 20:48:55 74° NW 20:48:55 74° NW 20:53:33 10° NNW
Timation 2 Rocket 4.1 20:43:59 10° NNW 20:50:07 67° WSW 20:51:23 53° SSW
Cosmos 1864 Rocket 4.4 20:56:05 85° ENE 20:56:05 85° ENE 21:02:18 10° N
Cosmos 1833 Rocket 3.5 20:51:40 10° NNW 20:57:00 46° WSW 20:58:19 39° SW
DASH 3.3 20:46:55 10° W 20:56:26 69° W 20:56:26 69° W
SeaSat 1 4.4 20:55:07 16° SSW 20:57:43 24° WSW 21:01:40 10° NW
OAO 2 Rocket 4.5 21:05:31 10° W 21:09:17 42° WNW 21:09:17 42° WNW
